Regional Weather Roundup
Issued by NWS

Home | Current Version | Previous Version | Graphics & Text | Print | Product List | Glossary On
Versions: 1 2 3 4 5 6 7 8 9 10 11 12 13 14 15 16 17 18 19 20 21 22 23 24 25 26 27 28 29 30 31 32 33 34 35 36 37 38 39 40 41 42 43 44 45 46 47 48 49 50
000
ASUS45 KBOU 251707
RWRCO

WEATHER ROUNDUP FOR COLORADO
NATIONAL WEATHER SERVICE DENVER/BOULDER CO
1100 AM MDT MON SEP 25 2017

NOTE: "FAIR" INDICATES FEW OR NO CLOUDS BELOW 12000 FEET WITH NO
SIGNIFICANT WEATHER AND/OR OBSTRUCTIONS TO VISIBILITY.

COZ001>005-013-030-031-251800-
...NORTHWEST COLORADO...

CITY           SKY/WX    TMP DP  RH WIND       PRES   REMARKS
CRAIG          PTSUNNY   48  31  51 N5        30.14F
HAYDEN         CLOUDY    43  31  62 NW5       30.15F
MEEKER         FAIR      45  32  60 VRB3      30.14F
RABBIT EARS PA FAIR      32  28  86 W6        30.18R WCI  26
STEAMBOAT SPGS FAIR      42  32  68 CALM      30.13F
WALDEN         FAIR      41  27  56 CALM      30.14S
$$

COZ006>008-011-251800-
...WEST CENTRAL VALLEYS...

CITY           SKY/WX    TMP DP  RH WIND       PRES   REMARKS
GRAND JUNCTION FAIR      54  32  43 W5        30.09F
MONTROSE       FAIR      49  28  44 CALM      30.12F
EAGLE          FAIR      45  24  43 CALM      30.13F
RIFLE          FAIR      50  31  48 N3        30.11F
DELTA          NOT AVBL
NUCLA          FAIR      48  27  43 NW6       30.14S
$$

COZ017>023-064>068-251800-
...SOUTHWEST COLORADO...

CITY           SKY/WX    TMP DP  RH WIND       PRES   REMARKS
DURANGO        FAIR      52  19  27 CALM      30.08F
CORTEZ         FAIR      55  15  20 CALM      30.08S
PAGOSA SPRINGS FAIR      52  13  21 SW6       30.11F
TELLURIDE      FAIR      44   8  23 W3        30.16S
WOLF CREEK PAS FAIR      32   5  32 S13G22    30.27S WCI  22
$$

COZ009-010-012-014-032>034-037-058>063-251800-
...CENTRAL COLORADO...

CITY           SKY/WX    TMP DP  RH WIND       PRES   REMARKS
ASPEN          FAIR      47  21  35 N7        30.10F
BUENA VISTA    FAIR      50  31  49 E7        30.09F
COPPER MTN     FAIR      41   7  24 S14       30.20S
BERTHOUD PASS  HAZE      25  16  68 SE20      30.22S VSB 1/2 WCI  11
COTTONWOOD PAS FAIR      45  34  65 E5        30.15F
GUNNISON       FAIR      43  16  33 VRB3      30.12F
KREMMLING      FAIR      54  30  40 E3        30.13F
LEADVILLE      FAIR      39  21  48 VRB3      30.13F
MONARCH PASS   FAIR      36  16  44 SW13      30.31F
SALIDA         FAIR      52  37  55 CALM      30.16F
SUNLIGHT       FAIR      30  21  69 NW5       30.22F WCI  25
WILKERSON PASS CLOUDY    36  32  87 S7        30.24S
$$

COZ069>075-251800-
...SAN LUIS VALLEY/SANGRE DE CRISTO MOUNTAINS...

CITY           SKY/WX    TMP DP  RH WIND       PRES   REMARKS
ALAMOSA        FAIR      54  33  45 CALM      30.06F
DEL NORTE      FAIR      51  24  34 E7        30.09F
LA VETA PASS   LGT RAIN  37  36  93 NE9       30.28S VSB 1/4
SAGUACHE       FAIR      52  23  32 SE6       30.09F
$$

COZ035-036-038>040-251800-
...NORTHERN COLORADO FRONT RANGE...

CITY           SKY/WX    TMP DP  RH WIND       PRES   REMARKS
DENVER INTL AP CLOUDY    47  43  86 N8        30.12F FOG
DMNS CITY PARK   N/A     48  41  77 N14       30.12F
AURORA         PTSUNNY   46  46  99 NW3       30.12F
FRONT RANGE AP CLOUDY    48  45  87 N5        30.13S
ERIE MUNI ARPT CLOUDY    47  42  85 CALM      30.18F
BOULDER MUN AP CLOUDY    45  43  93 CALM      30.13F
CENTENNIAL     PTSUNNY   47  42  83 NE5       30.11F
BROOMFIELD     PTSUNNY   46  41  81 CALM      30.14S
FORT COLLINS   CLOUDY    48  42  80 SE8       30.14S
LONGMONT       CLOUDY    49  43  80 CALM      30.15F HAZE
$$

COZ041-046-047-076>085-087-088-251800-
...PIKES PEAK/PALMER DIVIDE AND SOUTHERN FOOTHILLS...

CITY           SKY/WX    TMP DP  RH WIND       PRES   REMARKS
COLO. SPRINGS  PTSUNNY   53  41  63 N12       30.09F
A. F. ACADEMY  CLOUDY    49  39  69 N16       30.09F
SCHRIEVER AFB  PTSUNNY   51  39  63 MISG      30.09S
CHEYENNE MTN   CLOUDY    47  38  73 N12       30.05S
ELLICOTT       PTSUNNY  N/A N/A N/A NE16      30.08S
FALCON         CLOUDY    50  38  62 N13G20    30.11F
FORT CARSON    CLOUDY    55  41  59 N10       30.07F
LIMON            N/A    N/A N/A N/A MISG      30.09F
MONUMENT HILL  CLOUDY    41  37  87 N7        30.14F
CANON CITY     NOT AVBL
WALSENBURG     NOT AVBL
TRINIDAD       LGT RAIN  49  48  97 N10       30.06F FOG
$$

COZ042>045-048>051-090-091-251800-
...NORTHEAST COLORADO...

CITY           SKY/WX    TMP DP  RH WIND       PRES   REMARKS
GREELEY ARPT   CLOUDY    49  42  77 SE3       30.14S
AKRON          CLOUDY    46  42  86 N8        30.10S
BURLINGTON     CLOUDY    49  48  97 N15       30.05F
WRAY           CLOUDY    50  45  81 N14       30.08R
YUMA           CLOUDY    45  45 100 N8        30.09S
STERLING       CLOUDY    48  45  87 N7        30.10F
HOLYOKE        CLOUDY    52  46  82 N12       30.09F
FORT MORGAN    CLOUDY    50  42  74 NE7       30.13S
$$

COZ086-089-092>099-251800-
...SOUTHEAST COLORADO...

CITY           SKY/WX    TMP DP  RH WIND       PRES   REMARKS
PUEBLO         CLOUDY    55  46  71 SE7       30.06S
LA JUNTA       CLOUDY    53  49  86 NE10      30.05R
LAMAR          CLOUDY    53  48  83 NE8       30.02R
SPRINGFIELD      N/A     53  53 100 N17       30.01S
$$



USA.gov is the U.S. government's official web portal to all federal, state and local government web resources and services.